Location: Unspecified
(20.0000°S, 0.0000°E)
Time: 11:33:20
(UTC+00:00)

OTV 5 (USA 277) - Pass Details

Date: 25 May 2019
Orbit: 310 x 325 km, 54.5° (Epoch: 08 May)

Event Time Altitude Azimuth Distance (km) Brightness Sun altitude
Rises 17:59:54 0° 335° (NNW) 2,015 ? -7.7°
Reaches altitude 10° 18:01:53 10° 342° (NNW) 1,196 ? -8.1°
Maximum altitude 18:04:26 43° 56° (NE) 452 ? -8.7°
Enters shadow 18:06:40 13° 128° (SE) 1,074 ? -9.2°
